�N����,����,�~����,�C��,���x,�C��,����,���ϕ���,�ő�u�ԕ���,�ő厞����,���˗�,�I�_���x,�n�����x,�ő啗���N��,DTYPE
"22/10/27","00:10",0.0,9.3,86.9,1020.4,315.8,1.1,1.6,324.8,0.00,7.3,15.8,"00:06:48",1
"22/10/27","00:20",0.0,9.1,87.7,1020.1,297.4,1.5,2.1,313.1,0.00,7.2,15.6,"00:15:52",1
"22/10/27","00:30",0.0,9.4,88.7,1020.4,310.4,2.0,3.7,332.7,0.00,7.7,15.7,"00:29:20",1
"22/10/27","00:40",0.0,9.6,89.2,1020.1,305.3,2.0,4.2,343.5,0.00,8.0,15.6,"00:31:44",1
"22/10/27","00:50",0.0,9.7,89.5,1020.6,317.5,1.8,2.7,334.8,0.00,8.1,15.4,"00:41:36",1
"22/10/27","01:00",0.0,9.6,89.8,1020.4,322.7,1.8,2.7,334.5,0.00,8.0,15.6,"00:59:20",1
"22/10/27","01:10",0.0,9.5,90.0,1020.1,316.8,1.8,2.7,282.1,0.00,8.0,15.4,"01:02:40",1
"22/10/27","01:20",0.0,9.2,90.2,1020.1,310.2,1.6,2.0,318.2,0.00,7.7,15.6,"01:11:36",1
"22/10/27","01:30",0.0,9.0,90.6,1020.4,301.9,1.5,2.5,327.0,0.00,7.6,15.6,"01:23:12",1
"22/10/27","01:40",0.0,9.2,90.9,1020.1,320.3,2.0,3.5,323.2,0.00,7.8,15.5,"01:32:40",1
"22/10/27","01:50",0.0,9.0,91.1,1020.4,320.4,1.1,2.0,314.1,0.00,7.7,15.5,"01:48:48",1
"22/10/27","02:00",0.0,9.0,91.5,1020.1,323.4,2.1,3.5,331.0,0.00,7.7,15.4,"01:56:56",1
"22/10/27","02:10",0.0,9.2,91.5,1020.1,325.4,2.1,4.0,322.8,0.00,7.9,15.5,"02:06:24",1
"22/10/27","02:20",0.0,9.0,91.6,1020.1,322.2,1.6,2.4,320.9,0.00,7.7,15.5,"02:11:04",1
"22/10/27","02:30",0.0,8.5,91.7,1019.9,283.2,1.0,1.9,300.0,0.00,7.3,15.3,"02:20:48",1
"22/10/27","02:40",0.0,8.1,92.0,1019.7,305.5,1.2,2.5,312.5,0.00,6.9,15.3,"02:37:28",1
"22/10/27","02:50",0.0,7.8,92.2,1019.7,295.4,1.2,1.9,306.7,0.00,6.7,15.2,"02:48:56",1
"22/10/27","03:00",0.0,7.8,92.6,1019.9,298.1,1.8,2.9,316.8,0.00,6.7,15.0,"02:59:36",1
"22/10/27","03:10",0.0,8.1,92.7,1019.7,297.2,1.7,2.5,298.1,0.00,7.0,15.1,"03:01:12",1
"22/10/27","03:20",0.0,8.0,92.8,1019.7,292.2,1.2,2.6,323.0,0.00,6.9,14.9,"03:11:28",1
"22/10/27","03:30",0.0,7.6,93.2,1019.9,288.6,1.2,2.0,305.2,0.00,6.6,15.1,"03:26:32",1
"22/10/27","03:40",0.0,8.0,93.5,1019.7,290.0,2.0,3.2,328.8,0.00,7.1,14.8,"03:39:20",1
"22/10/27","03:50",0.0,8.5,93.7,1019.7,315.8,2.2,3.5,328.9,0.00,7.6,15.0,"03:45:36",1
"22/10/27","04:00",0.0,8.7,93.8,1019.2,325.3,2.2,4.4,333.6,0.00,7.8,15.0,"03:56:48",1
"22/10/27","04:10",0.0,8.7,93.9,1019.4,317.9,2.0,3.6,309.9,0.00,7.8,15.0,"04:06:08",1
"22/10/27","04:20",0.0,8.6,93.9,1019.4,303.4,2.1,3.2,309.8,0.00,7.7,14.8,"04:12:32",1
"22/10/27","04:30",0.0,8.7,94.0,1019.7,309.4,2.2,3.6,318.4,0.00,7.8,14.9,"04:27:28",1
"22/10/27","04:40",0.0,8.9,93.9,1020.4,318.0,2.3,4.4,324.5,0.00,8.0,14.9,"04:32:56",1
"22/10/27","04:50",0.0,8.9,93.8,1020.1,326.5,2.2,4.3,315.5,0.00,8.0,14.7,"04:46:32",1
"22/10/27","05:00",0.0,8.7,93.8,1020.4,331.0,1.8,3.9,336.4,0.00,7.8,14.9,"04:51:20",1
"22/10/27","05:10",0.0,8.7,93.9,1020.4,320.5,2.3,3.3,340.6,0.00,7.8,14.7,"05:00:32",1
"22/10/27","05:20",0.0,8.7,93.7,1020.6,308.0,1.8,3.2,329.0,0.00,7.8,14.8,"05:11:20",1
"22/10/27","05:30",0.0,8.6,93.8,1020.6,318.1,2.1,3.6,330.9,0.00,7.7,14.7,"05:28:32",1
"22/10/27","05:40",0.0,8.6,93.8,1020.8,317.5,2.1,3.2,311.6,0.00,7.7,14.8,"05:38:56",1
"22/10/27","05:50",0.0,8.7,93.8,1020.8,316.7,2.1,3.4,285.8,0.00,7.8,14.5,"05:44:56",1
"22/10/27","06:00",0.0,8.4,93.6,1020.6,291.1,1.3,2.9,314.2,0.00,7.5,14.8,"05:55:28",1
"22/10/27","06:10",0.0,8.1,93.8,1021.1,292.4,1.7,3.4,308.7,0.00,7.2,14.7,"06:08:48",1
"22/10/27","06:20",0.0,8.2,93.9,1021.3,311.9,1.8,3.2,326.2,0.00,7.3,14.7,"06:12:08",1
"22/10/27","06:30",0.0,8.0,93.9,1020.8,294.0,1.3,2.1,312.3,0.00,7.1,14.6,"06:23:20",1
"22/10/27","06:40",0.0,7.7,94.0,1021.1,282.9,0.7,1.3,288.0,0.00,6.8,14.8,"06:33:28",1
"22/10/27","06:50",0.0,7.3,94.1,1020.8,286.3,0.7,1.2,306.5,0.00,6.5,14.8,"06:48:24",1
"22/10/27","07:00",0.0,7.2,94.3,1020.6,284.9,1.2,2.0,300.8,0.00,6.4,14.6,"06:56:56",1
"22/10/27","07:10",0.0,7.2,94.6,1020.8,308.0,1.8,2.4,311.8,0.00,6.4,14.6,"07:05:28",1
"22/10/27","07:20",0.0,7.4,94.6,1020.6,292.5,1.3,2.1,322.5,0.00,6.6,14.4,"07:11:12",1
"22/10/27","07:30",0.0,7.7,94.7,1020.6,299.9,1.5,2.0,318.8,0.01,6.9,14.5,"07:29:28",1
"22/10/27","07:40",0.0,8.0,94.7,1020.8,295.5,1.0,2.0,317.6,0.00,7.2,14.5,"07:30:48",1
"22/10/27","07:50",0.0,8.3,94.9,1020.8,292.7,0.1,1.0,291.7,0.03,7.6,14.4,"07:44:40",1
"22/10/27","08:00",0.0,9.0,94.9,1020.6,294.2,0.8,1.3,294.3,0.04,8.3,14.2,"07:58:08",1
"22/10/27","08:10",0.0,9.5,94.9,1020.8,308.0,1.6,2.8,323.9,0.06,8.8,14.4,"08:07:20",1
"22/10/27","08:20",0.0,9.8,94.9,1021.3,311.1,1.7,2.7,321.5,0.07,9.1,14.5,"08:10:56",1
"22/10/27","08:30",0.0,10.4,94.9,1020.4,283.9,1.0,2.1,315.4,0.08,9.7,14.5,"08:21:12",1
"22/10/27","08:40",0.0,10.9,94.9,1021.3,287.3,0.5,1.1,262.9,0.09,10.2,14.5,"08:30:48",1
"22/10/27","08:50",0.0,11.5,94.4,1021.3,278.8,0.6,1.0,321.5,0.15,10.7,14.5,"08:42:00",1
"22/10/27","09:00",0.0,11.8,93.4,1021.1,239.4,0.5,0.9,305.7,0.15,10.8,14.5,"08:50:24",1
"22/10/27","09:10",0.0,12.0,92.7,1021.3,268.6,0.8,1.3,260.1,0.11,10.9,14.5,"09:01:04",1
"22/10/27","09:20",0.0,12.5,92.3,1021.5,299.2,0.6,1.3,309.1,0.09,11.3,14.5,"09:19:20",1
"22/10/27","09:30",0.0,12.7,91.3,1021.5,280.4,1.0,1.6,254.8,0.13,11.4,14.5,"09:20:48",1
"22/10/27","09:40",0.0,13.2,89.9,1022.0,325.3,0.6,1.1,339.7,0.13,11.6,14.7,"09:30:40",1
"22/10/27","09:50",0.0,13.6,88.2,1022.3,259.4,0.6,1.2,290.9,0.15,11.7,14.7,"09:49:44",1
"22/10/27","10:00",0.0,14.0,86.0,1022.0,283.9,1.1,2.0,319.2,0.20,11.7,14.7,"09:59:12",1
"22/10/27","10:10",0.0,14.6,83.5,1022.0,260.6,0.5,1.0,237.8,0.18,11.9,14.7,"10:03:44",1
"22/10/27","10:20",0.0,14.8,81.2,1022.0,259.8,0.5,1.0,286.4,0.19,11.7,14.3,"10:13:04",1
"22/10/27","10:30",0.0,15.0,78.6,1021.3,321.5,0.5,1.0,357.1,0.11,11.4,14.7,"10:21:36",1
"22/10/27","10:40",0.0,15.0,77.4,1021.3,284.5,0.5,1.0,279.3,0.09,11.1,14.7,"10:32:08",1
"22/10/27","10:50",0.0,15.4,76.4,1020.8,312.7,0.6,1.2,5.6,0.15,11.3,15.0,"10:43:04",1
"22/10/27","11:00",0.0,15.5,75.4,1021.1,266.5,0.2,0.6,326.4,0.13,11.2,14.6,"10:52:08",1
"22/10/27","11:10",0.0,15.6,74.6,1020.6,303.8,0.5,1.2,285.0,0.14,11.1,14.9,"11:06:24",1
"22/10/27","11:20",0.0,16.3,73.0,1020.4,325.9,1.1,2.1,339.0,0.32,11.5,15.0,"11:15:12",1
"22/10/27","11:30",0.0,16.6,71.5,1020.1,273.9,0.5,1.0,336.0,0.19,11.5,15.0,"11:20:24",1
"22/10/27","11:40",0.0,16.6,70.8,1020.4,251.7,0.6,1.1,258.1,0.19,11.3,15.0,"11:30:08",1
"22/10/27","11:50",0.0,16.6,70.2,1020.4,302.0,0.7,1.7,326.5,0.16,11.2,15.2,"11:46:40",1
"22/10/27","12:00",0.0,17.3,70.3,1019.7,287.4,0.5,1.2,322.8,0.23,11.9,15.2,"11:50:08",1
"22/10/27","12:10",0.0,17.8,68.8,1019.9,306.7,0.5,1.0,307.6,0.26,12.0,15.2,"12:01:28",1
"22/10/27","12:20",0.0,17.7,65.6,1019.7,115.9,0.3,1.2,125.2,0.27,11.2,15.3,"12:12:08",1
"22/10/27","12:30",0.0,17.8,64.9,1019.2,340.5,0.3,0.9,323.8,0.21,11.2,15.5,"12:21:28",1
"22/10/27","12:40",0.0,18.0,63.1,1019.2,322.4,0.6,2.1,247.8,0.27,10.9,15.5,"12:39:52",1
"22/10/27","12:50",0.0,17.8,61.6,1019.2,250.7,1.2,2.0,241.3,0.29,10.4,15.4,"12:45:20",1
"22/10/27","13:00",0.0,18.5,62.4,1018.7,254.7,0.3,1.9,282.6,0.33,11.2,15.4,"12:50:40",1
"22/10/27","13:10",0.0,18.7,59.2,1018.2,242.3,0.7,1.9,241.0,0.29,10.6,15.5,"13:08:00",1
"22/10/27","13:20",0.0,18.4,59.0,1018.5,232.9,1.6,2.9,234.1,0.35,10.3,15.6,"13:16:48",1
"22/10/27","13:30",0.0,18.8,57.0,1018.5,278.3,0.7,1.8,218.1,0.30,10.2,15.7,"13:26:56",1
"22/10/27","13:40",0.0,19.2,54.4,1018.0,224.8,0.8,1.4,236.7,0.36,9.8,15.7,"13:32:32",1
"22/10/27","13:50",0.0,19.9,50.7,1017.8,195.1,0.7,1.6,253.1,0.39,9.4,15.8,"13:40:56",1
"22/10/27","14:00",0.0,19.2,51.9,1018.0,256.7,1.0,3.5,204.5,0.15,9.1,15.9,"13:55:36",1
"22/10/27","14:10",0.0,19.0,53.6,1018.2,231.4,1.0,2.1,238.9,0.23,9.4,16.0,"14:01:44",1
"22/10/27","14:20",0.0,18.6,53.1,1017.8,200.1,0.7,2.7,238.9,0.15,8.9,16.2,"14:12:48",1
"22/10/27","14:30",0.0,19.0,55.3,1018.0,264.7,0.5,1.2,253.4,0.16,9.9,16.0,"14:26:24",1
"22/10/27","14:40",0.0,19.0,53.8,1018.0,271.5,0.8,1.9,233.7,0.16,9.5,16.0,"14:36:00",1
"22/10/27","14:50",0.0,19.2,53.3,1018.0,314.2,0.8,1.7,342.0,0.15,9.5,16.2,"14:43:28",1
"22/10/27","15:00",0.0,19.5,54.7,1017.8,268.3,0.5,1.2,54.5,0.17,10.2,16.3,"14:50:02",1
"22/10/27","15:10",0.0,20.3,50.4,1017.8,345.0,1.1,2.4,348.7,0.31,9.7,16.2,"15:02:00",1
"22/10/27","15:20",0.0,20.8,48.3,1017.8,288.7,0.8,2.2,346.5,0.20,9.5,16.2,"15:13:44",1
"22/10/27","15:30",0.0,19.7,51.5,1017.8,248.8,1.0,2.0,334.7,0.10,9.5,16.3,"15:21:04",1
"22/10/27","15:40",0.0,19.1,53.4,1018.0,280.0,0.8,1.6,250.1,0.09,9.5,16.3,"15:32:32",1
"22/10/27","15:50",0.0,18.7,56.3,1018.0,243.6,1.2,2.6,248.7,0.10,9.9,16.3,"15:46:32",1
"22/10/27","16:00",0.0,18.2,57.2,1017.8,251.1,1.5,2.6,229.2,0.07,9.6,16.4,"15:50:56",1
"22/10/27","16:10",0.0,18.0,59.7,1017.8,246.7,1.1,1.9,251.7,0.07,10.1,16.6,"16:04:24",1
"22/10/27","16:20",0.0,17.8,61.1,1018.0,238.0,0.6,1.7,242.5,0.05,10.3,16.3,"16:12:48",1
"22/10/27","16:30",0.0,18.0,62.1,1018.2,241.2,0.8,2.0,228.1,0.07,10.7,16.5,"16:26:08",1
"22/10/27","16:40",0.0,17.8,63.4,1018.2,266.4,0.7,1.4,244.3,0.05,10.8,16.4,"16:30:24",1
"22/10/27","16:50",0.0,18.0,63.8,1018.5,301.7,0.6,1.1,325.3,0.04,11.1,16.6,"16:49:04",1
"22/10/27","17:00",0.0,17.9,65.3,1018.2,302.4,0.8,1.2,301.8,0.03,11.3,16.5,"16:52:08",1
"22/10/27","17:10",0.0,17.5,67.1,1018.2,316.8,1.0,1.6,326.4,0.02,11.4,16.5,"17:06:00",1
"22/10/27","17:20",0.0,17.0,68.8,1018.5,297.9,0.8,1.7,332.2,0.00,11.3,16.6,"17:19:12",1
"22/10/27","17:30",0.0,16.1,70.5,1018.7,289.7,0.8,2.0,328.7,0.00,10.8,16.4,"17:22:08",1
"22/10/27","17:40",0.0,15.7,71.8,1018.7,294.6,0.8,1.3,328.4,0.00,10.7,16.5,"17:38:24",1
"22/10/27","17:50",0.0,15.1,73.1,1018.5,301.9,0.8,1.6,311.5,0.00,10.4,16.4,"17:44:56",1
"22/10/27","18:00",0.0,14.5,75.2,1018.7,311.7,1.3,2.0,301.0,0.00,10.2,16.5,"17:55:12",1
"22/10/27","18:10",0.0,14.1,77.3,1018.7,297.3,1.1,2.2,285.2,0.00,10.2,16.4,"18:09:06",1
"22/10/27","18:20",0.0,13.7,79.2,1019.2,289.1,1.2,2.4,325.0,0.00,10.2,16.5,"18:12:20",1
"22/10/27","18:30",0.0,13.4,80.3,1019.0,287.7,1.3,1.9,269.8,0.00,10.1,16.4,"18:27:30",1
"22/10/27","18:40",0.0,13.1,81.1,1019.0,289.1,1.3,2.1,311.8,0.00,10.0,16.3,"18:32:44",1
"22/10/27","18:50",0.0,13.0,81.9,1019.0,288.5,1.7,2.5,300.4,0.00,10.0,16.5,"18:41:04",1
"22/10/27","19:00",0.0,12.8,82.5,1019.2,281.6,1.5,1.9,296.7,0.00,9.9,16.3,"18:55:38",1
"22/10/27","19:10",0.0,12.6,82.8,1019.0,277.0,1.5,1.9,276.7,0.00,9.8,16.5,"19:03:26",1
"22/10/27","19:20",0.0,12.4,83.2,1019.4,322.5,1.7,2.0,318.2,0.00,9.7,16.0,"19:17:14",1
"22/10/27","19:30",0.0,11.5,84.3,1019.4,317.6,1.2,2.0,315.5,0.00,9.0,16.4,"19:21:20",1
"22/10/27","19:40",0.0,11.6,85.3,1019.4,300.9,1.6,2.5,330.3,0.00,9.3,16.2,"19:34:08",1
"22/10/27","19:50",0.0,11.5,85.9,1019.7,288.7,1.3,1.9,319.9,0.00,9.3,16.3,"19:46:46",1
"22/10/27","20:00",0.0,11.5,86.2,1019.7,294.5,1.3,1.9,304.0,0.00,9.3,16.2,"19:50:32",1
"22/10/27","20:10",0.0,11.3,86.4,1019.7,305.8,1.3,2.2,309.9,0.00,9.2,16.1,"20:01:20",1
"22/10/27","20:20",0.0,10.7,87.0,1019.7,326.9,1.5,1.7,330.3,0.00,8.7,16.1,"20:12:16",1
"22/10/27","20:30",0.0,10.2,87.5,1019.7,310.4,1.3,1.7,309.3,0.00,8.3,16.0,"20:21:52",1
"22/10/27","20:40",0.0,9.8,88.2,1019.4,308.8,0.8,1.6,317.7,0.00,8.0,16.1,"20:33:04",1
"22/10/27","20:50",0.0,9.8,88.9,1019.7,316.9,1.3,1.9,310.3,0.00,8.1,16.0,"20:48:16",1
"22/10/27","21:00",0.0,9.6,89.4,1019.4,317.1,1.5,2.0,328.6,0.00,8.0,15.9,"20:56:56",1
"22/10/27","21:10",0.0,9.7,90.3,1019.7,315.0,1.6,2.4,286.5,0.00,8.2,15.9,"21:09:44",1
"22/10/27","21:20",0.0,9.9,90.5,1019.4,318.2,1.7,2.2,313.1,0.00,8.5,15.7,"21:10:48",1
"22/10/27","21:30",0.0,9.4,90.8,1019.7,297.3,1.0,1.3,277.7,0.00,8.0,15.7,"21:20:08",1
"22/10/27","21:40",0.0,9.1,91.3,1019.7,298.3,1.2,1.9,332.1,0.00,7.8,15.7,"21:39:44",1
"22/10/27","21:50",0.0,8.9,91.7,1019.7,298.2,1.0,1.6,304.7,0.00,7.7,15.7,"21:41:52",1
"22/10/27","22:00",0.0,9.1,92.0,1019.9,317.8,1.6,2.2,315.6,0.00,7.9,15.8,"21:52:16",1
"22/10/27","22:10",0.0,8.9,92.2,1019.7,319.3,1.7,2.4,309.3,0.00,7.7,15.6,"22:00:16",1
"22/10/27","22:20",0.0,8.6,92.5,1019.9,289.0,1.1,1.9,309.9,0.00,7.5,15.6,"22:10:02",1
"22/10/27","22:30",0.0,8.7,92.9,1019.9,315.0,2.1,2.5,321.8,0.00,7.7,15.3,"22:26:56",1
"22/10/27","22:40",0.0,8.4,93.1,1019.7,306.9,1.7,2.4,318.8,0.00,7.4,15.4,"22:30:08",1
"22/10/27","22:50",0.0,8.5,93.3,1019.7,300.1,1.2,2.5,304.5,0.00,7.5,15.3,"22:40:24",1
"22/10/27","23:00",0.0,9.0,93.7,1019.7,318.7,1.8,2.7,323.4,0.00,8.1,15.3,"22:52:40",1
"22/10/27","23:10",0.0,8.9,93.8,1019.9,317.0,1.2,2.4,319.1,0.00,8.0,15.3,"23:04:48",1
"22/10/27","23:20",0.0,8.7,94.0,1019.7,292.9,0.6,1.8,306.3,0.00,7.8,15.2,"23:19:52",1
"22/10/27","23:30",0.0,8.4,94.2,1019.4,318.8,1.8,2.7,324.5,0.00,7.6,15.3,"23:22:08",1
"22/10/27","23:40",0.0,8.5,94.7,1019.7,291.5,1.6,2.7,298.9,0.00,7.7,15.3,"23:38:24",1
"22/10/27","23:50",0.0,8.9,94.6,1019.2,323.4,1.8,2.7,326.1,0.00,8.1,15.1,"23:42:56",1
"22/10/27","24:00",0.0,8.8,94.9,1019.4,298.0,1.5,2.5,326.2,0.00,8.1,15.1,"23:59:28",1
